Regional Weather Roundup
Issued by NWS

Home | Current Version | Previous Version | Graphics & Text | Print | Product List | Glossary On
Versions: 1 2 3 4 5 6 7 8 9 10 11 12 13 14 15 16 17 18 19 20 21 22 23 24 25 26 27 28 29 30 31 32 33 34 35 36 37 38 39 40 41 42 43 44 45 46 47 48 49 50
000
ASUS43 KTOP 011659
RWRKS

WEATHER ROUNDUP FOR KANSAS
NATIONAL WEATHER SERVICE GOODLAND KS
1100 AM CST SUN FEB 01 2015

NOTE:  "FAIR" INDICATES FEW OR NO CLOUDS BELOW 12,000 FEET WITH NO
SIGNIFICANT WEATHER AND/OR OBSTRUCTIONS TO VISIBILITY.

KSZ001>006-013>018-027>032-041>047-011800-
NORTHWEST KANSAS

CITY           SKY/WX    TMP DP  RH WIND       PRES   REMARKS
GOODLAND       PTSUNNY   18  11  74 N32G44    30.20R WCI  -2
HAYS           CLOUDY    18   3  53 N28G39    30.17R WCI  -1
HILL CITY      MIX PCPN  16   8  71 N31G41    30.21R WCI  -4
RUSSELL        FLURRIES  19  14  81 N26G37    30.15R WCI   1
$$

KSZ061>065-074>080-084>089-011800-
SOUTHWEST KANSAS

CITY           SKY/WX    TMP DP  RH WIND       PRES   REMARKS
DODGE CITY     MOSUNNY   24  14  65 N28G39    30.14R WCI   7
ELKHART          N/A     28  15  58 N15         N/A  WCI  16
GARDEN CITY    MOSUNNY   24  12  60 N26G41    30.19R WCI   8
LIBERAL        SUNNY     28  16  59 N32G39    30.20R WCI  12
$$

KSZ066>073-081>083-090>101-011800-
SOUTHEAST KANSAS

CITY           SKY/WX    TMP DP  RH WIND       PRES   REMARKS
CHANUTE        CLOUDY    32  27  81 NW29      29.90R WCI  18
COFFEYVILLE    CLOUDY    33  28  81 NW25G36   29.93R WCI  20
HUTCHINSON     FLURRIES  23  14  68 NW31G41   30.08R WCI   5
MEDICINE LODGE   N/A     27  18  69 N26G39    30.10R WCI  12
NEWTON         CLOUDY    21  12  68 NW32G41   30.03R WCI   2
PARSONS        CLOUDY    33  28  81 NW28G37   29.92R WCI  20
WICHITA INTL   CLOUDY    24  15  68 N32G44    30.05R WCI   6
WICHITA JABRA  CLOUDY    23  22  96 NW26G39   30.04R WCI   6
WICHITA MCCONL MIX PCPN  23  16  74 N23G37    30.03R WCI   7
WINFIELD       CLOUDY    27  20  75 NW33      30.04R WCI  10
$$

KSZ007>012-019>026-033>040-048>060-102>105-011800-
NORTHEAST KANSAS

CITY           SKY/WX    TMP DP  RH WIND       PRES   REMARKS
CONCORDIA      LGT SNOW  13   9  84 NW26G37   30.10R VSB 1   WCI  -7
EMPORIA        CLOUDY    25  20  81 NW28G39   29.95R WCI   9
LAWRENCE       LGT SNOW  31  28  89 NW31G38   29.85R VSB 1   WCI  16
MANHATTAN      LGT SNOW  20  15  81 N13G29    30.02R WCI   7
OLATHE IND     LGT SNOW  33  32  96 W13       29.82R FOG     WCI  24
OLATHE EXE     LGT SNOW  33  32  96 NW14      29.79R FOG     WCI  23
SALINA         CLOUDY    21  15  78 NW30G46   30.10R HAZE    WCI   3
TOPEKA BILLARD LGT SNOW  28  25  88 NW22G32   29.92R VSB 1   WCI  14
TOPEKA FORBES  LGT SNOW  29  25  85 NW32G39   29.90R VSB 1   WCI  13
$$


USA.gov is the U.S. government's official web portal to all federal, state and local government web resources and services.